Location: Peebles
(55.6412°N, 3.1714°W)
Time: 16:36:23
(UTC+01:00)

deb AGENA D - Visible Passes

Search period start: 03 July 2022 00:00
Search period end: 13 July 2022 00:00
Orbit: 952 x 1018 km, 99.8° (Epoch: 02 July)

Date Brightness Start Highest point End Pass type
(mag) Time Alt. Az. Time Alt. Az. Time Alt. Az.
03 Jul ? 01:11:35 10° SE 01:17:44 56° ENE 01:23:53 10° NNW visible
03 Jul ? 02:55:27 10° SSW 03:01:18 40° W 03:07:13 10° NNW visible
03 Jul ? 23:57:47 10° E 00:02:40 24° NE 00:07:31 10° N visible
04 Jul ? 01:38:52 10° SSE 01:45:11 78° ENE 01:51:32 10° NNW visible
04 Jul ? 03:23:53 10° SSW 03:29:10 27° W 03:34:28 10° NW visible
05 Jul ? 00:24:23 10° ESE 00:29:51 32° NE 00:35:19 10° N visible
05 Jul ? 02:06:32 11° SSE 02:12:46 76° WSW 02:19:06 10° NNW visible
05 Jul ? 23:11:50 10° ENE 23:15:13 15° NE 23:18:37 10° N visible
06 Jul ? 00:51:15 10° SE 00:57:09 43° ENE 01:03:02 10° N visible
06 Jul ? 02:34:31 11° S 02:40:25 53° W 02:46:37 10° NNW visible
06 Jul ? 23:37:58 10° E 23:42:16 20° NE 23:46:33 10° N visible
07 Jul ? 01:18:20 10° SE 01:24:31 60° ENE 01:30:44 10° NNW visible
07 Jul ? 03:02:30 10° SSW 03:08:12 36° W 03:14:00 10° NNW visible
08 Jul ? 00:04:23 10° E 00:09:24 26° NE 00:14:23 10° N visible
08 Jul ? 01:45:41 10° SSE 01:52:01 84° ENE 01:58:21 10° NNW visible
08 Jul ? 03:30:59 10° SW 03:36:05 25° W 03:41:11 10° NW visible
08 Jul ? 22:52:27 10° NE 22:54:56 13° NNE 22:57:24 10° N visible
09 Jul ? 00:31:02 10° ESE 00:36:37 34° NE 00:42:09 10° N visible
09 Jul ? 02:13:35 12° S 02:19:35 70° WSW 02:25:55 10° NNW visible
09 Jul ? 23:18:19 10° ENE 23:21:55 16° NE 23:25:29 10° N visible
10 Jul ? 00:57:56 10° SE 01:03:55 46° ENE 01:09:53 10° NNW visible
10 Jul ? 02:41:34 12° S 02:47:17 48° W 02:53:22 10° NNW visible
10 Jul ? 23:44:31 10° E 23:48:58 21° NE 23:53:24 10° N visible
11 Jul ? 01:25:04 10° SE 01:31:19 65° ENE 01:37:32 10° NNW visible
11 Jul ? 03:09:33 11° SSW 03:15:04 33° W 03:20:43 10° NNW visible
12 Jul ? 00:10:58 10° ESE 00:16:06 27° NE 00:21:13 10° N visible
12 Jul ? 01:52:40 11° SSE 01:58:49 90° E 02:05:09 10° NNW visible
12 Jul ? 03:38:06 10° SW 03:42:58 23° W 03:47:50 10° NW visible
12 Jul ? 22:58:52 10° ENE 23:01:35 13° NNE 23:04:18 10° N visible
